Location: Chagrin Falls Park
(41.4139°N, 81.3865°W)
Time: 18:45:17
(UTC+00:00)

NOSS 3-3 (C) - Pass Details

Date: 29 October 2020
Orbit: 825 x 1387 km, 63.4° (Epoch: 22 November)

Event Time Altitude Azimuth Distance (km) Brightness Sun altitude
Rises 23:23:39 0° 205° (SSW) 3,375 7.3 -11.8°
Reaches altitude 10° 23:26:01 10° 202° (SSW) 2,475 6.5 -12.2°
Maximum altitude 23:31:39 69° 121° (ESE) 972 3.8 -13.3°
Drops below altitude 10° 23:38:00 10° 39° (NE) 2,772 6.0 -14.5°
Enters shadow 23:38:38 - 39° (NE) 3,005 6.2 -14.6°
